Tracking 19572 objects as of 23-Feb-2019
HD Live streaming from Space Station
objects crossing your sky now

USA 276

Track USA 276 now!
10-day predictions
USA 276 is classified as:


NORAD ID: 42689
Int'l Code: 2017-022A
Perigee: 396.6 km
Apogee: 408.7 km
Inclination: 50.0 °
Period: 92.5 minutes
Semi major axis: 6773 km
RCS: Unknown
Launch date: May 1, 2017
Source: United States (US)
Launch site: AIR FORCE EASTERN TEST RANGE (AFETR)
aabbcc
Your satellite tracking list
Your tracking list is empty




NASA's NSSDC Master Catalog

Two Line Element Set (TLE):
1 42689U 17022A   19047.13200148 0.00004300  00000-0  57481-4 0    00
2 42689  50.0239 119.2843 0009000 272.3310  87.6687 15.57287562    05
Source of the keplerian elements: McCants